[[{"header":{"parameterUnit":"m.s-1","parameterCategory":1,"la1":30.2991,"la2":30.254,"lo1":-89.0895,"lo2":-89.0444,"dy":0.0017,"dx":0.0017,"nx":28,"ny":28,"refTime":"2026-02-07T09:00:00:Z","depth":0,"parameterNumber":2,"parameterNumberName":"U-component_of_WINDS"},"data":[0,0,0,0,0,0,0,0,0,0,0,0,0,0,0,0,0,0,0,0,0,0,0,0,0,0,0,0,0,0,0,0,0,0,0,0,0,0,0,0,0,0,0,0,0,0,0,0,0,0,0,0,0,0,0,0,0,0,-3.5277,-3.5277,0,-3.5288,-3.5288,-3.5288,-3.5135,-3.5131,-3.5127,-3.5123,-3.5136,-3.514,-3.5145,0,0,0,0,0,0,0,0,0,0,0,0,0,-3.5124,-3.5128,-3.5277,-3.5277,-3.5277,-3.5288,-3.5288,-3.5288,-3.5136,-3.5131,-3.5126,-3.5121,-3.5135,-3.514,-3.5145,0,0,0,0,0,0,0,0,0,0,0,0,0,-3.5169,-3.5129,-3.5277,-3.5202,-3.5196,-3.5288,-3.5288,-3.5288,-3.5137,-3.5131,-3.5125,-3.5119,-3.5133,-3.5139,-3.5146,-3.531,0,0,-3.5165,-3.5168,0,0,0,0,0,0,0,0,-3.5166,-3.5174,-3.5213,-3.5208,-3.52,-3.5204,-3.5239,-3.5296,-3.5139,-3.516,-3.5123,-3.5116,-3.5164,-3.5167,-3.5183,-3.5311,-3.5311,-3.5166,-3.5169,-3.5172,-3.5174,0,0,0,0,0,0,0,-3.5163,-3.5173,-3.5281,-3.5214,-3.5206,-3.5169,-3.5168,-3.5249,-3.5197,-3.5157,-3.5146,-3.5149,-3.5159,-3.5178,-3.5182,-3.5312,-3.5165,-3.5171,-3.5175,-3.5178,-3.5575,-3.5582,0,0,0,0,0,0,-3.517,-3.5172,-3.5281,-3.5282,-3.5168,-3.5177,-3.5176,-3.5209,-3.5195,-3.5187,-3.5155,-3.5142,-3.517,-3.5175,-3.5182,-3.5375,-3.5172,-3.5178,-3.5182,-3.5569,-3.5577,-3.5584,0,0,0,0,0,0,-3.5168,-3.5182,-3.528,-3.5224,-3.5233,-3.5186,-3.5224,-3.5213,-3.5231,-3.5194,-3.5184,-3.5183,-3.5165,-3.5173,-3.528,-3.5373,-3.5181,-3.5187,-3.5561,-3.5571,-3.5581,-3.5762,0,0,0,0,0,0,-3.5164,-3.5181,-3.5243,-3.5226,-3.5237,-3.5378,-3.523,-3.5217,-3.5242,-3.5226,-3.5217,-3.521,-3.5161,-3.5271,-3.5286,-3.5379,-3.5192,-3.5552,-3.5565,-3.5577,-3.5747,-3.5777,-3.5802,0,0,0,0,0,-3.5159,-3.5294,-3.5247,-3.5261,-3.5313,-3.5384,-3.539,-3.533,-3.525,-3.5312,-3.5288,-3.521,-3.536,-3.5283,-3.5299,-3.5395,-3.5546,-3.5562,-3.5576,-3.5735,-3.5771,-3.5801,0,0,0,0,0,0,-3.5324,-3.529,-3.5238,-3.5372,-3.5382,-3.5358,-3.5434,-3.537,-3.5403,-3.5386,-3.5311,-3.531,-3.5429,-3.5422,-3.5337,-3.5553,-3.5439,-3.5458,-3.5554,-3.5588,-3.5615,-3.5615,-3.5197,0,0,0,0,0,-3.5376,-3.5435,-3.5403,-3.5524,-3.5531,-3.5482,-3.5511,-3.5463,-3.5471,-3.5474,-3.5458,-3.5469,-3.5518,-3.5552,-3.5596,-3.5745,-3.5741,-3.5818,-3.5846,-3.5868,-3.5886,-3.5966,-3.6,-3.5634,-3.5634,-3.5634,0,0,-3.5484,-3.5473,-3.5515,-3.5557,-3.5559,-3.5623,-3.5487,-3.556,-3.5607,-3.5485,-3.5585,-3.5574,-3.5581,-3.5709,-3.5765,-3.5707,-3.5986,-3.5888,-3.5906,-3.5912,-3.5985,-3.602,-3.605,-3.5644,-3.5643,-3.5641,0,0,-3.5713,-3.5711,-3.5811,-3.5816,-3.5821,-3.5787,-3.5812,-3.5798,-3.5786,-3.5884,-3.5795,-3.5849,-3.5936,-3.5944,-3.596,-3.6194,-3.6124,-3.621,-3.6354,-3.6432,-3.6461,-3.6486,-3.6571,-3.6602,-3.6227,-3.6228,-3.6228,0,-3.5847,-3.5939,-3.5871,-3.5951,-3.5972,-3.5865,-3.5967,-3.5975,-3.5994,-3.6012,-3.5946,-3.6052,-3.6049,-3.6179,-3.6236,-3.6252,-3.6278,-3.6211,-3.6462,-3.6487,-3.6509,-3.6589,-3.6621,-3.6238,-3.6237,-3.6236,-3.6235,0,-3.6104,-3.617,-3.6251,-3.6272,-3.6302,-3.6393,-3.6339,-3.6377,-3.6328,-3.6301,-3.6404,-3.6396,-3.6436,-3.6463,-3.6415,-3.6587,-3.6551,-3.6475,-3.6359,-3.6556,-3.663,-3.666,-3.6253,-3.6249,-3.6246,-3.6244,0,0,-3.6439,-3.6421,-3.6453,-3.6461,-3.6458,-3.6508,-3.6594,-3.6633,-3.6668,-3.6685,-3.6756,-3.6831,-3.6761,-3.6779,-3.6731,-3.68,-3.6987,-3.6715,-3.6714,-3.6767,-3.7177,-3.7235,-3.7272,-3.6939,-3.6945,-3.6949,-3.7177,0,-3.6664,-3.6809,-3.6751,-3.6901,-3.6962,-3.686,-3.6935,-3.6942,-3.6919,-3.6967,-3.6942,-3.6998,-3.69,-3.6911,-3.6974,-3.6951,-3.7068,-3.6933,-3.7006,-3.7009,-3.7009,-3.731,-3.7372,-3.7587,-3.7205,-3.721,-3.7213,0,-3.6946,-3.6974,-3.7131,-3.7118,-3.7141,-3.721,-3.7241,-3.7288,-3.7294,-3.7272,-3.7293,-3.723,-3.7314,-3.7197,-3.7312,-3.7222,-3.7247,-3.7241,-3.7248,-3.7253,-3.7125,-3.7326,-3.7654,-3.7687,-3.7258,-3.7254,-3.7251,0,-3.7176,-3.7253,-3.7357,-3.7368,-3.7355,-3.7406,-3.7403,-3.7402,-3.743,-3.7457,-3.7474,-3.7511,-3.7532,-3.7563,-3.7511,-3.7431,-3.7635,-3.7513,-3.762,-3.7622,-3.7669,-3.7668,-3.8008,-3.7684,-3.7683,-3.7683,-3.7682,0,-3.7434,-3.7535,-3.7461,-3.7526,-3.7635,-3.7566,-3.7677,-3.7663,-3.7664,-3.7724,-3.7637,-3.7696,-3.7624,-3.7676,-3.7636,-3.7738,-3.7748,-3.7734,-3.7723,-3.7743,-3.7745,-3.776,-3.7745,-3.7691,-3.7689,-3.7688,-3.7686,0,-3.7711,-3.7666,-3.7773,-3.7752,-3.7749,-3.7831,-3.7813,-3.7872,-3.7843,-3.7921,-3.7935,-3.789,-3.7947,-3.7898,-3.7953,-3.7926,-3.8062,-3.8029,-3.8061,-3.8052,-3.8163,-3.8154,-3.8527,-3.8573,-3.8218,-3.8221,-3.8224,0,-3.788,-3.7955,-3.7942,-3.7976,-3.7979,-3.8034,-3.8062,-3.7997,-3.8029,-3.8042,-3.81,-3.8149,-3.8185,-3.828,-3.8253,-3.8294,-3.8262,-3.839,-3.8268,-3.8286,-3.8266,-3.8263,-3.8271,-3.8415,-3.8419,-3.8423,-3.8426,0,-3.8184,-3.8158,-3.8201,-3.8237,-3.8272,-3.8297,-3.8315,-3.8348,-3.8281,-3.8322,-3.8379,-3.8407,-3.8462,-3.8513,-3.8545,-3.8542,-3.8475,-3.8464,-3.8491,-3.8514,-3.853,-3.8524,-3.813,-3.8456,-3.8453,-3.8451,-3.8449,-3.8448,-3.8413,-3.8476,-3.8477,-3.8527,-3.8534,-3.8553,-3.8608,-3.8586,-3.8632,-3.8672,-3.863,-3.87,-3.8704,-3.874,-3.8746,-3.8799,-3.8746,-3.8786,-3.8796,-3.8807,-3.8824,-3.852,-3.8805,-3.8804,-3.8803,-3.8802,-3.8802,0,-3.8715,-3.871,-3.8757,-3.8786,-3.8826,-3.8757,-3.8773,-3.8812,-3.8874,-3.8883,-3.892,-3.8986,-3.9034,-3.9011,-3.9053,-3.9101,-3.9071,-3.9114,-3.9111,-3.9112,-3.8868,-3.8841,-3.9138,-3.9138,-3.9138,-3.9138,-3.9138,-3.9138,-3.8876,-3.8979,-3.8953,-3.9058,-3.9052,-3.9119,-3.9135,-3.9152,-3.9159,-3.9236,-3.9276,-3.926,-3.9256,-3.9298,-3.9339,-3.9331,-3.9352,-3.9407,-3.9388,-3.9162,-3.9129,-3.9097,-3.9071,-3.9412,-3.9412,-3.9627,-3.9629,-3.9631]},{"header":{"parameterUnit":"m.s-1","parameterCategory":1,"la1":30.2991,"la2":30.254,"lo1":-89.0895,"lo2":-89.0444,"dy":0.0017,"dx":0.0017,"nx":28,"ny":28,"refTime":"2026-02-07T09:00:00:Z","depth":0,"parameterNumber":3,"parameterNumberName":"V-component_of_WINDS"},"data":[0,0,0,0,0,0,0,0,0,0,0,0,0,0,0,0,0,0,0,0,0,0,0,0,0,0,0,0,0,0,0,0,0,0,0,0,0,0,0,0,0,0,0,0,0,0,0,0,0,0,0,0,0,0,0,0,0,0,-1.5399,-1.5399,0,-1.545,-1.5451,-1.5451,-1.5458,-1.5457,-1.5457,-1.5456,-1.5507,-1.5509,-1.5511,0,0,0,0,0,0,0,0,0,0,0,0,0,-1.5304,-1.5305,-1.5399,-1.5399,-1.54,-1.545,-1.5451,-1.5451,-1.5458,-1.5457,-1.5457,-1.5456,-1.5507,-1.5509,-1.5511,0,0,0,0,0,0,0,0,0,0,0,0,0,-1.5349,-1.5306,-1.5399,-1.5409,-1.5411,-1.545,-1.5451,-1.5452,-1.5458,-1.5457,-1.5457,-1.5456,-1.5506,-1.5509,-1.5511,-1.5543,0,0,-1.552,-1.5521,0,0,0,0,0,0,0,0,-1.5346,-1.5352,-1.5407,-1.5409,-1.541,-1.5447,-1.5436,-1.5482,-1.5458,-1.544,-1.5456,-1.5455,-1.5488,-1.5492,-1.5503,-1.5545,-1.5547,-1.552,-1.5521,-1.5523,-1.5523,0,0,0,0,0,0,0,-1.5343,-1.535,-1.5419,-1.5408,-1.541,-1.5411,-1.5416,-1.5445,-1.5467,-1.5442,-1.5442,-1.5448,-1.5488,-1.55,-1.5504,-1.5548,-1.552,-1.5522,-1.5524,-1.5525,-1.5617,-1.5618,0,0,0,0,0,0,-1.5338,-1.5348,-1.5417,-1.5421,-1.5376,-1.5413,-1.5419,-1.5436,-1.5467,-1.5471,-1.5449,-1.5448,-1.5496,-1.5501,-1.5506,-1.5544,-1.5523,-1.5525,-1.5527,-1.5616,-1.5617,-1.5618,0,0,0,0,0,0,-1.5336,-1.5345,-1.5415,-1.5384,-1.5393,-1.5415,-1.5434,-1.5437,-1.5449,-1.5473,-1.5476,-1.5457,-1.5496,-1.5502,-1.5533,-1.5546,-1.5526,-1.5529,-1.5615,-1.5617,-1.5618,-1.5621,0,0,0,0,0,0,-1.5334,-1.5344,-1.5357,-1.5385,-1.5395,-1.5443,-1.5435,-1.5439,-1.5454,-1.5454,-1.5481,-1.5485,-1.5496,-1.5529,-1.5536,-1.5549,-1.5531,-1.5614,-1.5616,-1.5617,-1.562,-1.5622,-1.5624,0,0,0,0,0,-1.533,-1.5355,-1.5357,-1.5366,-1.5412,-1.5443,-1.5449,-1.5461,-1.5455,-1.5468,-1.5482,-1.5484,-1.5544,-1.5532,-1.554,-1.5554,-1.5614,-1.5616,-1.5617,-1.5619,-1.5622,-1.5624,0,0,0,0,0,0,-1.5328,-1.5359,-1.5362,-1.5397,-1.5417,-1.5444,-1.5461,-1.5464,-1.5486,-1.5485,-1.5499,-1.5505,-1.5535,-1.5548,-1.5535,-1.5586,-1.5578,-1.5581,-1.5576,-1.5579,-1.5581,-1.5577,-1.5533,0,0,0,0,0,-1.5332,-1.5356,-1.5381,-1.541,-1.542,-1.5439,-1.5453,-1.546,-1.5482,-1.549,-1.5508,-1.5528,-1.5551,-1.5566,-1.5589,-1.5622,-1.5627,-1.5635,-1.5637,-1.5639,-1.5642,-1.5659,-1.5663,-1.5624,-1.5624,-1.5624,0,0,-1.534,-1.536,-1.5374,-1.541,-1.5427,-1.545,-1.5446,-1.5471,-1.5488,-1.5494,-1.5525,-1.5538,-1.5561,-1.5593,-1.5608,-1.5605,-1.5654,-1.5641,-1.5643,-1.5644,-1.5661,-1.5665,-1.5668,-1.5626,-1.5625,-1.5625,0,0,-1.5366,-1.5384,-1.5409,-1.5426,-1.5451,-1.5463,-1.5469,-1.5496,-1.5504,-1.5535,-1.554,-1.556,-1.56,-1.5616,-1.563,-1.5661,-1.5663,-1.5668,-1.5679,-1.5696,-1.5699,-1.5701,-1.5711,-1.5715,-1.567,-1.567,-1.567,0,-1.5372,-1.5408,-1.5421,-1.5446,-1.5461,-1.5468,-1.5493,-1.5508,-1.554,-1.555,-1.5546,-1.5595,-1.5611,-1.5647,-1.5654,-1.5665,-1.5672,-1.5665,-1.5697,-1.57,-1.5703,-1.5713,-1.5716,-1.5671,-1.5671,-1.5671,-1.5671,0,-1.5414,-1.5439,-1.5456,-1.5487,-1.5504,-1.5529,-1.5544,-1.556,-1.5566,-1.5578,-1.5608,-1.5628,-1.5654,-1.5663,-1.5669,-1.5699,-1.5696,-1.5695,-1.5687,-1.5707,-1.5716,-1.572,-1.5671,-1.5671,-1.5671,-1.5671,0,0,-1.5441,-1.5477,-1.5483,-1.5497,-1.5525,-1.5544,-1.5569,-1.5595,-1.5607,-1.5628,-1.5649,-1.5682,-1.568,-1.5695,-1.5703,-1.5718,-1.574,-1.5714,-1.5715,-1.5717,-1.5773,-1.5773,-1.5778,-1.5741,-1.5742,-1.5743,-1.577,0,-1.5469,-1.5514,-1.5526,-1.5563,-1.5586,-1.5592,-1.5613,-1.5632,-1.5644,-1.5664,-1.5677,-1.57,-1.5696,-1.5705,-1.572,-1.5734,-1.5751,-1.5732,-1.5759,-1.576,-1.5753,-1.5783,-1.5784,-1.5809,-1.5774,-1.5775,-1.5775,0,-1.5509,-1.5531,-1.5571,-1.5595,-1.5605,-1.5624,-1.5648,-1.5668,-1.5689,-1.5696,-1.5713,-1.5719,-1.5743,-1.5735,-1.5768,-1.5755,-1.5767,-1.5775,-1.5776,-1.5779,-1.5769,-1.5785,-1.5817,-1.5821,-1.5782,-1.5781,-1.5781,0,-1.5523,-1.5563,-1.5591,-1.5603,-1.5632,-1.5645,-1.5658,-1.5678,-1.5693,-1.5714,-1.5723,-1.5746,-1.5759,-1.5777,-1.5788,-1.5781,-1.5821,-1.5813,-1.5827,-1.5826,-1.5834,-1.5834,-1.5868,-1.5843,-1.5843,-1.5843,-1.5843,0,-1.5553,-1.5577,-1.5598,-1.5615,-1.5642,-1.5655,-1.568,-1.5693,-1.5711,-1.5731,-1.5737,-1.5755,-1.577,-1.579,-1.5799,-1.5825,-1.5831,-1.5837,-1.5839,-1.5836,-1.5835,-1.5843,-1.5842,-1.5844,-1.5844,-1.5844,-1.5843,0,-1.5574,-1.5589,-1.562,-1.5645,-1.5652,-1.567,-1.5691,-1.5708,-1.572,-1.5744,-1.575,-1.5769,-1.5792,-1.5806,-1.5835,-1.5841,-1.587,-1.5871,-1.5863,-1.5863,-1.5876,-1.5874,-1.5917,-1.5922,-1.5894,-1.5894,-1.5894,0,-1.5592,-1.561,-1.5637,-1.5651,-1.5664,-1.5686,-1.5701,-1.5714,-1.5729,-1.5754,-1.5767,-1.5791,-1.5811,-1.5847,-1.5863,-1.5885,-1.5887,-1.59,-1.589,-1.5886,-1.5886,-1.5885,-1.5886,-1.5902,-1.5902,-1.5902,-1.5902,0,-1.5622,-1.5628,-1.565,-1.5674,-1.5691,-1.571,-1.5729,-1.574,-1.5756,-1.5772,-1.5796,-1.5812,-1.5842,-1.5865,-1.5888,-1.59,-1.5904,-1.5905,-1.5909,-1.5906,-1.59,-1.5903,-1.5866,-1.5904,-1.5904,-1.5904,-1.5904,-1.5904,-1.5642,-1.5658,-1.5679,-1.5702,-1.5718,-1.5735,-1.5752,-1.5766,-1.5786,-1.5812,-1.5818,-1.5843,-1.5863,-1.5895,-1.5907,-1.5926,-1.5924,-1.593,-1.5932,-1.5933,-1.5933,-1.5898,-1.5931,-1.5931,-1.5931,-1.5931,-1.5931,0,-1.5671,-1.5685,-1.5707,-1.5733,-1.5751,-1.5753,-1.5774,-1.5788,-1.5811,-1.5829,-1.5848,-1.5875,-1.5897,-1.5914,-1.5937,-1.5949,-1.5951,-1.5954,-1.5953,-1.5956,-1.5934,-1.5928,-1.5952,-1.5952,-1.5952,-1.5952,-1.5952,-1.5952,-1.5689,-1.5717,-1.5725,-1.576,-1.5773,-1.5798,-1.581,-1.5825,-1.584,-1.587,-1.5889,-1.59,-1.5917,-1.5941,-1.5961,-1.5965,-1.5973,-1.5976,-1.598,-1.596,-1.5957,-1.5955,-1.5949,-1.5978,-1.5978,-1.6,-1.6,-1.6]}]]